Regional Weather Roundup
Issued by NWS

Home | Current Version | Previous Version | Text Only | Print | Product List | Glossary On
Versions: 1 2 3 4 5 6 7 8 9 10 11 12 13 14 15 16 17 18 19 20 21 22 23 24 25 26 27 28 29 30 31 32 33 34 35 36 37 38 39 40 41 42 43 44 45 46 47 48 49 50
000
ASUS44 KJAN 040603
RWRMS

MISSISSIPPI HOURLY WEATHER ROUNDUP
NATIONAL WEATHER SERVICE JACKSON MS
100 AM CDT WED MAY 04 2016

NOTE: "FAIR: INDICATES FEW OR NO CLOUDS BELOW 12,000 FEET WITH NO
SIGNIFICANT WEATHER AND/OR OBSTRUCTIONS TO VISIBILITY.

MSZ001>002-007>008-010>013-018>021-025>028-034>036-040700-
NORTHWEST MISSISSIPPI

CITY           SKY/WX    TMP DP  RH WIND       PRES   REMARKS
BATESVILLE     FAIR      49  48  96 CALM      29.98F
CLEVELAND      FAIR      55  55 100 W3        29.99S
GREENWOOD      CLEAR     52  49  89 CALM      29.99R
6HR MIN TEMP:  51; 6HR MAX TEMP:  65;

GREENVILLE     CLEAR     55  50  83 CALM      30.00R
6HR MIN TEMP:  54; 6HR MAX TEMP:  65;

OLIVE BRANCH   CLEAR     48  48 100 CALM      29.97S
OXFORD         FAIR      46  46 100 CALM      29.99S
TUNICA         CLEAR     52  50  93 SW3       29.98S
WINONA         FAIR      50  49  98 CALM      29.98S
$$

MSZ003>006-009-014>017-022>024-029>033-037>039-040700-
NORTHEAST MISSISSIPPI

CITY           SKY/WX    TMP DP  RH WIND       PRES   REMARKS
COLUMBUS AFB   NOT AVBL
CORINTH        FAIR      50  50 100 CALM      29.95S
GOLDN TRIANGLE CLEAR     54  48  82 NW5       29.95S
STARKVILLE     FAIR      50  50 100 CALM      29.96S
TUPELO         CLEAR     54  48  80 W3        29.95F
6HR MIN TEMP:  54; 6HR MAX TEMP:  65;

$$

MSZ040-058-040700-
CENTRAL MISSISSIPPI

CITY           SKY/WX    TMP DP  RH WIND       PRES   REMARKS
JACKSON INTL   CLEAR     55  50  83 CALM      29.98S
6HR MIN TEMP:  54; 6HR MAX TEMP:  69;

JACKSON HAWKNS CLEAR     55  51  86 NW5       29.99S
6HR MIN TEMP:  55; 6HR MAX TEMP:  68;

MADISON        FAIR      52  50  93 CALM      29.98S
MERIDIAN KEY   CLEAR     55  51  86 CALM      29.96S
6HR MIN TEMP:  55; 6HR MAX TEMP:  70; 6HR PCP: TRACE;

MERIDIAN NAS   CLEAR     56  50  80 NW5       29.95F
6HR MIN TEMP:  56; 6HR MAX TEMP:  70;

VICKSBURG TVR  CLEAR     58  55  90 VRB6      30.01S
6HR MIN TEMP:  58; 6HR MAX TEMP:  69;

VICKSBURG VKS  CLEAR     54  52  94 CALM      30.01S
$$

MSZ059>079-040700-
SOUTH MISSISSIPPI

CITY           SKY/WX    TMP DP  RH WIND       PRES   REMARKS
BROOKHAVEN     FAIR     N/A N/A N/A CALM      30.00S
COLUMBIA       FAIR      55  54  94 CALM      30.01S
HATTIESBURG    CLEAR     61  52  72 N8        29.97R
6HR MIN TEMP:  61; 6HR MAX TEMP:  75;

MCCOMB         CLEAR     59  54  83 N6        29.98S
6HR MIN TEMP:  59; 6HR MAX TEMP:  72;

NATCHEZ        CLEAR     55  52  88 CALM      30.01R
6HR MIN TEMP:  55; 6HR MAX TEMP:  70;

PINE BELT      CLEAR     57  48  72 N7        29.97S
6HR MIN TEMP:  57; 6HR MAX TEMP:  72;

$$

MSZ080>082-040700-
COASTAL MISSISSIPPI

CITY           SKY/WX    TMP DP  RH WIND       PRES   REMARKS
BILOXI         CLEAR     65  60  85 N9        29.92S
6HR MIN TEMP:  65; 6HR MAX TEMP:  73;

PASCAGOULA     CLEAR     64  59  83 N7        29.92R
6HR MIN TEMP:  64; 6HR MAX TEMP:  73;

GULFPORT       CLEAR     64  57  78 N10       29.93R
6HR MIN TEMP:  64; 6HR MAX TEMP:  74;

$$



USA.gov is the U.S. government's official web portal to all federal, state and local government web resources and services.